Regional Weather Roundup
Issued by NWS

Home | Current Version | Previous Version | Graphics & Text | Print | Product List | Glossary On
Versions: 1 2 3 4 5 6 7 8 9 10 11 12 13 14 15 16 17 18 19 20 21 22 23 24 25 26 27 28 29 30 31 32 33 34 35 36 37 38 39 40 41 42 43 44 45 46 47 48 49 50
337
ASUS43 KTOP 270608
RWRKS

WEATHER ROUNDUP FOR KANSAS
NATIONAL WEATHER SERVICE GOODLAND KS
100 AM CDT THU JUL 27 2017

NOTE:  "FAIR" INDICATES FEW OR NO CLOUDS BELOW 12,000 FEET WITH NO
SIGNIFICANT WEATHER AND/OR OBSTRUCTIONS TO VISIBILITY.

KSZ001>006-013>018-027>032-041>047-270700-
NORTHWEST KANSAS

CITY           SKY/WX    TMP DP  RH WIND       PRES   REMARKS
GOODLAND       CLOUDY    71  67  87 N7        30.17S
6HR MIN TEMP:  70; 6HR MAX TEMP:  83;

HAYS           CLOUDY    75  71  87 N12       30.04R
HILL CITY      CLOUDY    74  70  87 N6        30.08S
6HR MIN TEMP:  74; 6HR MAX TEMP:  85;

RUSSELL        PTCLDY    75  72  90 NE12      30.00S
6HR MIN TEMP:  75; 6HR MAX TEMP:  90;

$$

KSZ061>065-074>080-084>089-270700-
SOUTHWEST KANSAS

CITY           SKY/WX    TMP DP  RH WIND       PRES   REMARKS
DODGE CITY     CLOUDY    77  72  84 N12       30.03R
6HR MIN TEMP:  77; 6HR MAX TEMP:  96;

GARDEN CITY    CLOUDY    75  71  87 NE15      30.06S
6HR MIN TEMP:  75; 6HR MAX TEMP:  88;

GREAT BEND     CLOUDY    76  73  91 NE14      30.00S
LIBERAL        CLOUDY    79  70  74 NE12      30.06S
PRATT          MOCLDY    77  69  77 NE7       29.97S
6HR MIN TEMP:  77; 6HR MAX TEMP:  89;

$$

KSZ066>073-081>083-090>101-270700-
SOUTHEAST KANSAS

CITY           SKY/WX    TMP DP  RH WIND       PRES   REMARKS
CHANUTE        LGT RAIN  81  75  82 S12       29.95S
6HR MIN TEMP:  81; 6HR MAX TEMP:  91; 6HR PCP:  0.02;

COFFEYVILLE    LGT RAIN  84  75  74 S13       29.94F
6HR MIN TEMP:  84; 6HR MAX TEMP:  92; 6HR PCP: TRACE;

HUTCHINSON     PTCLDY    78  72  81 N3        29.94S
6HR MIN TEMP:  78; 6HR MAX TEMP:  88;

MEDICINE LODGE   N/A     84  66  54 S5        29.94R
NEWTON         PTCLDY    78  72  81 CALM      29.95F
WICHITA INTL   MOCLDY    83  71  67 S10       29.93R
6HR MIN TEMP:  83; 6HR MAX TEMP:  86;

WICHITA JABRA  PTCLDY    84  71  65 S12       29.92S
6HR MIN TEMP:  76; 6HR MAX TEMP:  84;

WICHITA MCCONL CLOUDY    83  69  62 SW12      29.93S
WINFIELD       CLOUDY    86  72  62 S13G21    29.94S
6HR MIN TEMP:  86; 6HR MAX TEMP:  92;

$$

KSZ007>012-019>026-033>040-048>060-102>105-270700-
NORTHEAST KANSAS

CITY           SKY/WX    TMP DP  RH WIND       PRES   REMARKS
CONCORDIA      CLOUDY    74  74 100 NE6       30.00S
6HR MIN TEMP:  74; 6HR MAX TEMP:  81;

EMPORIA        CLOUDY    76  76 100 E7        29.94F FOG
6HR MIN TEMP:  76; 6HR MAX TEMP:  79; 6HR PCP:  0.03;

LAWRENCE       RAIN      75  75 100 N7        29.94S FOG
6HR MIN TEMP:  75; 6HR MAX TEMP:  79; 6HR PCP:  0.44;

MANHATTAN      CLOUDY    76  74  93 NE6       29.96S
6HR MIN TEMP:  75; 6HR MAX TEMP:  80; 6HR PCP:  0.03;

MARYSVILLE     CLOUDY    73  73 100 N3        30.00S
OLATHE IND     LGT RAIN  76  76 100 E5        29.95F FOG
6HR MIN TEMP:  76; 6HR MAX TEMP:  78; 6HR PCP:  0.52;

OLATHE EXE     LGT RAIN  74  74 100 SE3       29.95F FOG
6HR MIN TEMP:  74; 6HR MAX TEMP:  77; 6HR PCP:  0.56;

SALINA         CLOUDY    78  74  87 NE7       29.97S
6HR MIN TEMP:  78; 6HR MAX TEMP:  90;

TOPEKA BILLARD TSTM      76  76 100 E6        29.95S
6HR MIN TEMP:  76; 6HR MAX TEMP:  78; 6HR PCP:  0.11;

TOPEKA FORBES  LGT RAIN  77  76  96 N8        29.96R
6HR MIN TEMP:  76; 6HR MAX TEMP:  80; 6HR PCP:  0.53;

$$




USA.gov is the U.S. government's official web portal to all federal, state and local government web resources and services.